Location: Klein M�hlingen
(51.9472°N, 11.7453°E)
Time: 09:47:50
(UTC+00:00)

Cosmos 1943 - Pass Details

Date: 09 April 2020
Orbit: 832 x 851 km, 71.0° (Epoch: 06 June)

Event Time Altitude Azimuth Distance (km) Brightness Sun altitude
Rises 19:10:01 0° 226° (SW) 3,389 6.6 -10.7°
Reaches altitude 10° 19:12:31 10° 231° (SW) 2,461 5.9 -11.0°
Maximum altitude 19:18:02 52° 308° (NW) 1,048 4.2 -11.8°
Drops below altitude 10° 19:23:36 10° 25° (NNE) 2,486 5.7 -12.5°
Sets 19:26:09 0° 30° (NNE) 3,427 6.4 -12.9°
